TimeEDT,TemperatureF,Dew PointF,Humidity,Sea Level PressureIn,VisibilityMPH,Wind Direction,Wind SpeedMPH,Gust SpeedMPH,PrecipitationIn,Events,Conditions,WindDirDegrees,DateUTC
12:56 AM,57.9,54.0,87,30.00,10.0,East,4.6,-,N/A,,Clear,100,2013-07-22 04:56:00
1:56 AM,55.9,53.1,90,30.00,10.0,ENE,3.5,-,N/A,,Clear,60,2013-07-22 05:56:00
2:56 AM,55.0,52.0,89,29.99,10.0,ENE,4.6,-,N/A,,Clear,70,2013-07-22 06:56:00
3:56 AM,54.0,51.1,90,29.99,10.0,NE,3.5,-,N/A,,Clear,40,2013-07-22 07:56:00
4:56 AM,53.1,51.1,93,29.98,10.0,East,3.5,-,N/A,,Clear,80,2013-07-22 08:56:00
5:56 AM,53.1,51.1,93,29.99,10.0,ENE,4.6,-,N/A,,Clear,70,2013-07-22 09:56:00
6:56 AM,55.0,53.1,93,29.99,10.0,Calm,Calm,-,N/A,,Clear,0,2013-07-22 10:56:00
7:56 AM,62.1,57.0,84,29.99,10.0,East,3.5,-,N/A,,Clear,80,2013-07-22 11:56:00
8:47 AM,69.8,55.4,60,29.99,10.0,East,6.9,-,N/A,,Partly Cloudy,80,2013-07-22 12:47:00
8:56 AM,70.0,55.0,59,29.98,10.0,East,6.9,-,N/A,,Partly Cloudy,80,2013-07-22 12:56:00
9:56 AM,71.1,53.1,53,29.98,10.0,ENE,9.2,-,N/A,,Clear,60,2013-07-22 13:56:00
10:56 AM,73.9,52.0,46,29.97,10.0,NE,11.5,-,N/A,,Clear,40,2013-07-22 14:56:00
11:56 AM,77.0,51.1,40,29.96,10.0,NE,9.2,-,N/A,,Clear,40,2013-07-22 15:56:00
12:56 PM,79.0,53.1,40,29.94,10.0,ENE,8.1,-,N/A,,Clear,60,2013-07-22 16:56:00
1:56 PM,81.0,53.1,38,29.91,10.0,NE,8.1,-,N/A,,Partly Cloudy,50,2013-07-22 17:56:00
2:56 PM,80.1,53.1,39,29.90,10.0,NE,6.9,-,N/A,,Clear,40,2013-07-22 18:56:00
3:56 PM,80.1,54.0,40,29.87,10.0,NNE,9.2,-,N/A,,Clear,20,2013-07-22 19:56:00
4:56 PM,80.1,53.1,39,29.85,10.0,NNE,10.4,-,N/A,,Clear,20,2013-07-22 20:56:00
5:56 PM,78.1,55.9,46,29.83,10.0,NE,8.1,-,N/A,,Clear,40,2013-07-22 21:56:00
6:56 PM,77.0,57.0,50,29.82,10.0,NE,6.9,-,N/A,,Clear,40,2013-07-22 22:56:00
7:56 PM,73.9,60.1,62,29.81,10.0,NE,5.8,-,N/A,,Clear,40,2013-07-22 23:56:00
8:56 PM,72.0,57.9,61,29.81,10.0,NE,6.9,-,N/A,,Partly Cloudy,40,2013-07-23 00:56:00
9:56 PM,70.0,59.0,68,29.81,10.0,East,3.5,-,N/A,,Partly Cloudy,80,2013-07-23 01:56:00
10:56 PM,69.1,60.1,73,29.79,10.0,Calm,Calm,-,N/A,,Clear,0,2013-07-23 02:56:00
11:56 PM,68.0,60.1,76,29.77,10.0,Calm,Calm,-,N/A,,Partly Cloudy,0,2013-07-23 03:56:00